TIANWANG 1B (TW-1B)
1 40927U 15051C   19365.44671388  .00009927  00000-0  13298-3 0  9992
2 40927  97.1134  50.5536 0007935  29.1439  86.2804 15.58150675240451
TIANWANG 1A (TW-1A)
1 40928U 15051D   19365.44170478  .00001971  00000-0  48474-4 0  9993
2 40928  97.1267  32.3130 0012604  82.8272  24.9851 15.41736059239320
LAPAN A2
1 40931U 15052B   19359.88757643  .00000532  00000-0 -14754-4 0  9991
2 40931   5.9859 140.5424 0010111 333.4127  26.3464 14.76619879229413
LQSAT
1 40958U 15057A   19365.46128358  .00000030  00000-0  12230-4 0  9990
2 40958  97.8769  69.1303 0017501 337.0529  22.9896 14.73102273227624
CHUBUSAT 2
1 41338U 16012B   19365.37512269  .00000265  00000-0  13783-4 0  9997
2 41338  31.0044 341.1156 0013809 241.4173 118.5073 15.00225473212321
CHUBUSAT 3
1 41339U 16012C   19365.32206089  .00000224  00000-0  10621-4 0  9996
2 41339  31.0143 339.2966 0013554 249.3146 110.6038 15.00395222212316
OUFTI-1
1 41458U 16025C   19364.79106408 +.00000645 +00000-0 +36379-4 0  9991
2 41458 098.0998 101.5831 0166203 061.1763 300.6034 15.06348960201931
E-STAR-2
1 41459U 16025D   19365.52048829  .00000812  00000-0  44917-4 0  9999
2 41459  98.1000 101.8920 0167784  60.4425 301.3400 15.05953170202010
AAUSAT 4
1 41460U 16025E   19365.50582155  .00000744  00000-0  40615-4 0  9999
2 41460  98.0965 103.6504 0156994  51.0995 310.4110 15.08040699202170
NUSAT 1
1 41557U 16033B   19365.46868135  .00000905  00000-0  36207-4 0  9996
2 41557  97.4114  91.8080 0012758 332.0838  27.9715 15.27630086199970
BEESAT 4
1 41619U 16040W   19364.87091830 +.00001077 +00000-0 +47857-4 0  9991
2 41619 097.3441 063.2347 0012619 061.7812 298.4698 15.23574668183577
PRATHAM
1 41783U 16059A   19364.79316001 +.00000030 +00000-0 +15051-4 0  9993
2 41783 098.0426 059.7967 0034654 129.1484 231.2806 14.63029140174079
ALSAT 1N
1 41789U 16059G   19365.43498199  .00000068  00000-0  21776-4 0  9992
2 41789  98.0459  62.8537 0029523 115.8073 244.6187 14.64286877174291
NAYIF 1
1 42017U 17008BX  19365.46501411  .00001196  00000-0  49299-4 0  9990
2 42017  97.3821  70.3480 0005989 183.9161 176.2032 15.26018654159776
MAX VALIER SAT
1 42778U 17036P   19365.42926411  .00000703  00000-0  33437-4 0  9992
2 42778  97.3300  58.5301 0010741 254.2354 105.7698 15.22325799140019
